DW0108 Weather Reports


Display with metric or nautical units.
time (UTC)temp
F
wind
direction
speed
MPH
gust
MPH
rain 1hr
in
rain 24hr
in
rain mn
in
humidity
%
barometer
mb
20260831121837 78 154 0.0 2.0 0.00 0.00 0.00 81 1016.5
20260831120834 78 155 1.0 2.0 0.00 0.00 0.00 81 1015.9
20260831115807 79 152 1.0 2.0 0.00 0.00 0.00 80 1015.9
20260831114816 78 120 0.0 1.0 0.00 0.00 0.00 81 1015.9
20260831113838 78 142 0.0 1.0 0.00 0.00 0.00 81 1015.9
20260831112844 77 297 0.0 0.0 0.00 0.00 0.00 82 1015.9
20260831111835 78 141 0.0 1.0 0.00 0.00 0.00 80 1015.9
20260831110817 78 179 0.0 1.0 0.00 0.00 0.00 81 1015.5
20260831105842 78 221 0.0 2.0 0.00 0.00 0.00 80 1015.5
20260831104841 78 147 0.0 2.0 0.00 0.00 0.00 81 1015.5
20260831103822 74 204 0.0 1.0 0.00 0.00 0.00 90 1015.5
20260831102814 73 259 0.0 0.0 0.00 0.00 0.00 94 1015.5
20260831095807 72 193 0.0 2.0 0.00 0.00 0.00 99 1015.5
20260831094808 72 175 0.0 1.0 0.00 0.00 0.00 99 1015.2
20260831092824 71 232 0.0 1.0 0.00 0.00 0.00 99 1015.2
20260831091819 71 280 0.0 0.0 0.00 0.00 0.00 99 1015.2
20260831090810 71 304 0.0 0.0 0.00 0.00 0.00 99 1015.2
20260831085846 71 176 0.0 1.0 0.00 0.00 0.00 99 1015.2
20260831084845 71 296 0.0 0.0 0.00 0.00 0.00 99 1015.2
20260831082825 72 303 0.0 1.0 0.00 0.00 0.00 99 1015.2
20260831081821 72 177 0.0 1.0 0.00 0.00 0.00 99 1015.2
20260831080825 71 174 0.0 1.0 0.00 0.00 0.00 99 1015.2
20260831075846 71 182 1.0 3.0 0.00 0.00 0.00 99 1015.2
20260831074831 71 200 1.0 3.0 0.00 0.00 0.00 99 1015.2
20260831073828 74 192 0.0 2.0 0.00 0.00 0.00 98 1015.2
20260831071844 83 169 0.0 3.0 0.00 0.00 0.00 61 1015.2
20260831070841 84 170 2.0 4.0 0.00 0.00 0.00 59 1015.2
20260831065812 84 166 1.0 3.0 0.00 0.00 0.00 59 1015.2
20260831064824 84 173 2.0 5.0 0.00 0.00 0.00 58 1015.2
20260831063835 82 178 2.0 4.0 0.00 0.00 0.00 66 1015.2
20260831062818 75 176 2.0 3.0 0.00 0.00 0.00 86 1015.2
20260831061837 71 177 1.0 3.0 0.00 0.00 0.00 99 1015.2
20260831055833 71 177 1.0 3.0 0.00 0.00 0.00 99 1015.2
20260831054834 86 156 0.0 1.0 0.00 0.00 0.00 53 1014.8
20260831053805 86 156 0.0 3.0 0.00 0.00 0.00 52 1015.2
20260831052842 86 161 1.0 3.0 0.00 0.00 0.00 51 1015.2
20260831051810 86 157 1.0 3.0 0.00 0.00 0.00 51 1014.8
20260831050823 86 166 0.0 2.0 0.00 0.00 0.00 51 1015.2
20260831045837 86 148 1.0 3.0 0.00 0.00 0.00 49 1014.8
20260831044842 87 170 0.0 1.0 0.00 0.00 0.00 49 1014.8
20260831043845 87 156 0.0 2.0 0.00 0.00 0.00 49 1014.8
20260831042811 87 155 0.0 1.0 0.00 0.00 0.00 50 1014.8
20260831040814 87 99 0.0 1.0 0.00 0.00 0.00 49 1014.8
20260831035833 87 104 0.0 1.0 0.00 0.00 0.00 49 1014.8
20260831034842 87 92 0.0 0.0 0.00 0.00 0.00 47 1014.8
20260831033845 88 169 0.0 1.0 0.00 0.00 0.00 45 1014.5
20260831032836 88 133 0.0 0.0 0.00 0.00 0.00 44 1014.5
20260831031835 89 118 0.0 1.0 0.00 0.00 0.00 44 1014.2
20260831030829 88 59 0.0 0.0 0.00 0.00 0.00 45 1014.5
20260831025806 88 80 0.0 1.0 0.00 0.00 0.00 43 1014.2
20260831023831 90 125 0.0 1.0 0.00 0.00 0.00 42 1014.2
20260831021840 91 117 0.0 1.0 0.00 0.00 0.00 40 1013.8
20260831020833 91 125 0.0 1.0 0.00 0.00 0.00 38 1013.8
20260831015829 92 131 0.0 1.0 0.00 0.00 0.00 38 1013.5
20260831014806 92 146 0.0 1.0 0.00 0.00 0.00 37 1013.2
20260831013811 93 148 0.0 1.0 0.00 0.00 0.00 37 1013.2
20260831011823 94 147 0.0 2.0 0.00 0.00 0.00 35 1013.2
20260831005830 95 161 1.0 3.0 0.00 0.00 0.00 34 1012.8
20260831004811 95 153 2.0 5.0 0.00 0.00 0.00 33 1013.2
20260831003828 96 161 1.0 3.0 0.00 0.00 0.00 32 1012.8
20260831002835 97 172 1.0 3.0 0.00 0.00 0.00 32 1013.2
20260831001847 97 172 2.0 6.0 0.00 0.00 0.00 32 1013.2
20260831000834 97 171 2.0 6.0 0.00 0.00 0.00 32 1012.8
20260830235844 98 170 1.0 3.0 0.00 0.00 0.00 33 1013.2
20260830234831 98 162 2.0 4.0 0.00 0.00 0.00 32 1013.2
20260830233817 99 151 2.0 4.0 0.00 0.00 0.00 31 1013.2
20260830232838 99 166 2.0 5.0 0.00 0.00 0.00 30 1013.2
20260830231840 99 150 1.0 2.0 0.00 0.00 0.00 31 1012.8
20260830230837 99 152 2.0 4.0 0.00 0.00 0.00 31 1012.8
20260830225813 100 166 1.0 4.0 0.00 0.00 0.00 31 1013.2
20260830224805 99 171 2.0 4.0 0.00 0.00 0.00 30 1013.2
20260830223814 100 169 1.0 4.0 0.00 0.00 0.00 29 1013.2
20260830221820 100 174 2.0 4.0 0.00 0.00 0.00 28 1013.5
20260830220839 100 115 2.0 4.0 0.00 0.00 0.00 29 1013.5
20260830215846 101 136 1.0 6.0 0.00 0.00 0.00 30 1013.2
20260830214842 100 167 2.0 7.0 0.00 0.00 0.00 30 1013.2
20260830213807 100 170 2.0 6.0 0.00 0.00 0.00 30 1013.5
20260830212849 101 164 2.0 6.0 0.00 0.00 0.00 30 1013.2
20260830211815 100 189 2.0 7.0 0.00 0.00 0.00 29 1013.5
20260830210825 100 165 2.0 5.0 0.00 0.00 0.00 31 1013.5
20260830203809 100 181 2.0 7.0 0.00 0.00 0.00 31 1014.2
20260830202810 100 218 2.0 4.0 0.00 0.00 0.00 31 1013.8
20260830201815 100 196 4.0 8.0 0.00 0.00 0.00 32 1014.2
20260830200839 100 177 2.0 5.0 0.00 0.00 0.00 32 1014.2
20260830195811 100 191 2.0 6.0 0.00 0.00 0.00 32 1014.5
20260830194831 100 182 2.0 6.0 0.00 0.00 0.00 33 1014.8
20260830193831 99 175 3.0 6.0 0.00 0.00 0.00 31 1014.8
20260830192843 99 170 2.0 5.0 0.00 0.00 0.00 31 1014.8
20260830191821 100 173 2.0 7.0 0.00 0.00 0.00 32 1015.2
20260830190836 99 180 3.0 7.0 0.00 0.00 0.00 33 1015.2
20260830185830 99 181 3.0 8.0 0.00 0.00 0.00 34 1015.5
20260830184829 98 187 3.0 6.0 0.00 0.00 0.00 35 1015.5
20260830183823 98 174 4.0 11.0 0.00 0.00 0.00 34 1015.5
20260830182833 98 172 4.0 8.0 0.00 0.00 0.00 34 1016.2
20260830181840 97 160 5.0 8.0 0.00 0.00 0.00 34 1015.9
20260830175805 97 162 3.0 6.0 0.00 0.00 0.00 36 1015.9
20260830174813 97 181 4.0 9.0 0.00 0.00 0.00 36 1016.5
20260830173821 97 167 4.0 8.0 0.00 0.00 0.00 36 1016.5
20260830172826 97 188 4.0 7.0 0.00 0.00 0.00 38 1016.9
20260830171814 96 178 3.0 7.0 0.00 0.00 0.00 39 1016.9
20260830170811 97 170 2.0 6.0 0.00 0.00 0.00 39 1016.9
20260830165837 95 165 3.0 8.0 0.00 0.00 0.00 42 1017.2
20260830164839 95 165 3.0 5.0 0.00 0.00 0.00 42 1017.2
20260830163804 95 182 2.0 6.0 0.00 0.00 0.00 43 1017.2
20260830162817 94 165 3.0 8.0 0.00 0.00 0.00 45 1017.6
20260830161804 94 161 4.0 12.0 0.00 0.00 0.00 45 1017.2
20260830160805 94 157 3.0 8.0 0.00 0.00 0.00 46 1017.2
20260830155837 93 168 2.0 5.0 0.00 0.00 0.00 48 1017.6
20260830154835 94 197 2.0 5.0 0.00 0.00 0.00 48 1017.2
20260830153821 93 173 3.0 6.0 0.00 0.00 0.00 49 1017.6
20260830152834 92 183 2.0 6.0 0.00 0.00 0.00 52 1017.2
20260830151838 91 198 3.0 10.0 0.00 0.00 0.00 52 1017.2
20260830150846 91 188 1.0 3.0 0.00 0.00 0.00 53 1017.2
20260830145814 90 168 3.0 5.0 0.00 0.00 0.00 55 1017.2
20260830144813 90 194 1.0 5.0 0.00 0.00 0.00 54 1017.2
20260830143831 88 215 1.0 3.0 0.00 0.00 0.00 57 1017.2
20260830142848 87 161 2.0 5.0 0.00 0.00 0.00 60 1017.6
20260830141836 86 182 2.0 7.0 0.00 0.00 0.00 63 1017.2
20260830140838 85 170 2.0 4.0 0.00 0.00 0.00 64 1017.6
20260830135823 84 184 1.0 5.0 0.00 0.00 0.00 66 1017.2
20260830134814 83 194 1.0 4.0 0.00 0.00 0.00 69 1017.2
20260830132816 81 156 1.0 5.0 0.00 0.00 0.00 73 1016.9
20260830131839 81 163 1.0 5.0 0.00 0.00 0.00 74 1017.2
20260830130807 80 147 1.0 2.0 0.00 0.00 0.00 76 1017.2
20260830125843 79 127 0.0 1.0 0.00 0.00 0.00 77 1016.9
20260830122814 78 210 0.0 1.0 0.00 0.00 0.00 79 1016.5